www.pogodaiklimat.ru

Погода и климат >> Архив погоды >> Гвинея-Биссау >> Bafata


ПОГОДА в Bafata

  • Прогноз погоды в Bafata
  • Монитор погоды в Bafata
  • Климат города

АРХИВ ПОГОДЫ в Bafata

Время (UTC), дата Ветер
(напр.,м/с)
 
Видим.   Явления Облачность Т
(С)
Тd
(С)
f
(%)
Тe
(С)
Тes
(С)
Комфортность P
(гПа)
Po
(гПа)
Тmin
(С)
Tmax
(С)
R
(мм)
R24
(мм)
S
(см)
09 13.07 0 10 км 10/5 420 м
[Cu med, cong Ac trans Ci sp]
+27.0 +24.7 87 1005.3 1002.8
12 13.07 0 10 км 10/4 420 м
[Cu med, cong Ac trans Ci sp]
+30.5 +24.2 69 1004.6 1003.1
15 13.07 0 8000 м {дождь} 10/4 540 м
[Cb cap Ac As]
+26.0 +26.0 100 1006.3 1003.8
18 13.07 0 8000 м {дождь} 10/4 420 м
[Cu med, cong Ac As]
+24.0 +24.0 100 1003.3 1000.8 62
09 14.07 0 10 км 10/4 420 м
[Cu med, cong Ci sp]
+25.0 +23.6 92 1006.3 1003.8
12 14.07 0 10 км 10/4 420 м
[Cu med, cong Ac trans Ci sp]
+29.0 +24.8 78 1006.1 1003.6
15 14.07 0 10 км 10/4 420 м
[Cu med, cong Ci sp]
+32.0 +25.6 69 1004.9 1002.4
18 14.07 0 10 км 10/4 420 м
[Cu med, cong Ac trans Ci sp]
+32.5 +26.0 69 1003.8 1001.3
09 15.07 0 10 км 10/0
[Ac As]
+26.0 +24.6 92 1007.4 1004.9
12 15.07 0 10 км 10/4 420 м
[Cu med, cong Ac trans Ci sp]
+27.0 +24.2 85 1006.1 1003.6
15 15.07 0 10 км 10/4 420 м
[Cu med, cong Ci sp]
+31.0 +25.4 72 1004.9 1002.4
18 15.07 0 10 км 10/4 420 м
[Cu med, cong Ci sp]
+31.0 +26.0 75 1003.8 1001.3
09 16.07 0 10 км 10/4 420 м
[Cu med, cong Ci sp]
+27.0 +24.8 88 1005.1 1002.6
12 16.07 0 10 км 10/4 420 м
[Cu med, cong Ac trans Ci sp]
+30.0 +24.4 72 1004.4 1001.9
15 16.07 0 10 км 10/4 420 м
[Cu med, cong Ac trans Ci sp]
+32.0 +25.6 69 1002.6 1000.3
18 16.07 0 10 км 10/4 420 м
[Cu med, cong Ci sp]
+31.5 +25.8 72 1001.6 999.1
12 17.07 0 10 км 10/4 420 м
[Cu med, cong Ac trans Ci sp]
+28.0 +25.3 85 1003.9 1001.4
15 17.07 0 10 км 10/5 420 м
[Cu med, cong Ac trans Ci sp]
+29.5 +24.9 76 1003.9 1001.4
18 17.07 0 8000 м {дождь} 10/4 420 м
[Cu med, cong Ac As]
+26.0 +24.6 92 1003.1 1000.6 10
09 18.07 0 10 км 10/5 150 м
[Cu med, cong Ac trans Ci sp]
+26.5 +25.0 91 1005.1 1002.6
12 18.07 0 10 км 10/4 420 м
[Cu med, cong Ac trans Ci sp]
+29.0 +25.4 81 1005.6 1003.1
15 18.07 0 10 км {дождь} 10/5 420 м
[Cb cap Ac As Ci sp]
+27.0 +24.4 86 1004.3 1001.4
18 18.07 0 8000 м {дождь} 10/4 420 м
[Cb cap Ac As]
+24.0 +24.0 100 1004.3 1001.8 62
09 19.07 0 8000 м {дождь} 10/3 420 м
[Cu med, cong Ac As]
+24.5 +24.1 98 1006.4 1003.9
12 19.07 0 8000 м {дождь} 10/0
[Ac As]
+25.0 +23.4 91 1006.3 1003.8 1
15 19.07 0 10 км {дождь} 10/3 420 м
[Cu med, cong Ac As Ci fib]
+25.5 +24.0 91 1004.3 1001.8
18 19.07 0 10 км {дождь} 10/5 420 м
[Cu med, cong Ac trans Ci sp]
+27.0 +23.9 83 1004.3 1001.8 1

 

Местоположение метеостанции Bafata (Гвинея-Биссау): широта 12.17 долгота -14.67 высота над уровнем моря 43 м.

В архиве по умолчанию представлена погода в Bafata за последнюю неделю. Архивные данные за месяц целиком и за предыдущие месяцы, начиная с января 2011 года, Вы можете получить, выбрав интересующий диапазон дат из раскрывающегося списка и нажав кнопку "Ввод!".


*Определитесь, кто Вы:
робот инопланетянин человек

Внимание! Время в таблицах - всемирное. Для получения местного времени необходимо прибавить поправку, которая в Bafata равна 0 ч.

Смотрите также архив погоды в соседних городах и на ближайших метеорологических станциях:

Погода в Kolda (Сенегал) (85 км)
Погода в Bolama (Гвинея-Биссау) (110 км)
Погода в Bissau (Гвинея-Биссау) (111 км)
Погода в Basse (Гамбия) (127 км)
Погода в Koundara (Гвинея) (134 км)
Погода в Georgetown (Гамбия) (152 км)
Погода в Jenoi (Гамбия) (175 км)
Погода в Ziguinchor (Сенегал) (178 км)
Погода в Kauur (Гамбия) (185 км)
Погода в Sibanor (Гамбия) (203 км)

Пояснения к столбцам:

Ветер - указаны скорость ветра в м/с - средняя за 10 мин, порывы в срок и между сроками (в фигурных скобках) и направление, откуда дует ветер: С - северный, СВ - северо-восточный, В - восточный, ЮВ - юго-восточный, Ю - южный, ЮЗ - юго-западный, З - западный, СЗ - северо-западный.
Видимость - горизонтальная дальность видимости в метрах или километрах. При видимости от 1 до 10 км при отсутствии осадков обычно наблюдается дымка, при ухудшении видимости до 1 км и менее - туман. В сухую погоду видимость может ухудшаться дымом, пылью или мглою.
Явления - указаны атмосферные явления, наблюдавшиеся в срок или в последний час перед сроком; фигурными скобками обозначены явления, наблюдавшиеся между сроками (за 1-3 часа до срока); квадратными скобками обозначены град или гололедные отложения с указанием их диаметра в мм.
Облачность - указаны через наклонную черту общая и нижняя облачность в баллах и высота нижней границы облаков в метрах; квадратными скобками обозначены формы облаков: Ci - перистые, Cs - перисто-слоистые, Cc - перисто-кучевые, Ac - высококучевые, As - высокослоистые, Sc - слоисто-кучевые, Ns - слоисто-дождевые, Cu - кучевые, Cb - кучево-дождевые. Подробнее классификацию облаков см. в Атласе облаков (PDF).
T - Температура воздуха - температура, измеренная на высоте 2 м над землей.
Td - Температура точки росы - температура, при понижении до которой содержащийся в воздухе водяной пар достигнет насыщения.
f - Относительная влажность воздуха - влажноcть воздуха, измеренная на высоте 2 м над землей.
Te - Эффективная температура - температура, которую ощущает одетый по сезону человек в тени. Характеристика душности погоды. При расчете учитывается влияние влажности воздуха и скорости ветра на теплоощущения человека.
Tes - Эффективная температура на солнце - температура, которую ощущает человек, с поправкой на солнечный нагрев. Характеристика знойности погоды. Зависит от высоты солнца над горизонтом, облачности и скорости ветра. Ночью, в пасмурную погоду, а также при ветре 12 м/с и более поправка равна нулю.
P - Атмосферное давление - приведенное к уровню моря атмосферное давление.
Po - Атмосферное давление - измеренное на уровне метеостанции атмосферное давление.
Tmin - Минимальная температура - минимум температуры воздуха на высоте 2 м над землей.
Tmax - Максимальная температура - максимум температуры воздуха на высоте 2 м над землей.
R - Количество осадков - Количество выпавших осадков за период времени, мм. При наведении курсора мыши на число - период времени, за который выпало указанное количество осадков.
R24 - Количество осадков - Количество выпавших осадков за 24 часа, мм.
S - Снежный покров - Высота снежного покрова, см. При наведении курсора мыши на число - состояние снежного покрова и степень покрытия местности в баллах.